This is the latest recevied weather packets stored in our database for station/object SP1BMW-13. If no packets are shown the sender has not sent any weather packets the latest 10 day(s).
| Time | Temp. | Humidity | Pressure | Rain* | Wind** | Luminosity | Snow |
|---|---|---|---|---|---|---|---|
| 1777148566 | 8.89° C | 60% | 1010.6 hPa | 0 mm | 4.02 m/s, 291° | 0 W/m² | - |
| 1777148506 | 8.89° C | 60% | 1010.7 hPa | 0 mm | 2.24 m/s, 227° | 0 W/m² | - |
| 1777148446 | 8.89° C | 60% | 1010.6 hPa | 0 mm | 3.58 m/s, 240° | 0 W/m² | - |
| 1777148386 | 8.89° C | 60% | 1010.6 hPa | 0 mm | 2.24 m/s, 264° | 0 W/m² | - |
| 1777148326 | 8.89° C | 60% | 1010.7 hPa | 0 mm | 2.68 m/s, 258° | 0 W/m² | - |
| 1777148266 | 8.89° C | 60% | 1010.8 hPa | 0 mm | 3.13 m/s, 265° | 0 W/m² | - |
| 1777148206 | 8.89° C | 59% | 1010.8 hPa | 0 mm | 4.92 m/s, 272° | 0 W/m² | - |
| 1777148146 | 8.89° C | 59% | 1010.7 hPa | 0 mm | 1.79 m/s, 249° | 0 W/m² | - |
| 1777148085 | 8.89° C | 60% | 1010.7 hPa | 0 mm | 3.13 m/s, 270° | 0 W/m² | - |
| 1777148026 | 8.89° C | 60% | 1010.9 hPa | 0 mm | 2.68 m/s, 245° | 0 W/m² | - |
| 1777147966 | 8.89° C | 60% | 1010.9 hPa | 0 mm | 2.68 m/s, 329° | 0 W/m² | - |
| 1777147906 | 8.89° C | 60% | 1010.9 hPa | 0 mm | 3.58 m/s, 290° | 0 W/m² | - |
| 1777147846 | 8.89° C | 60% | 1010.9 hPa | 0 mm | 1.79 m/s, 223° | 0 W/m² | - |
| 1777147786 | 8.89° C | 60% | 1010.7 hPa | 0 mm | 2.24 m/s, 303° | 0 W/m² | - |
| 1777147726 | 8.89° C | 60% | 1010.8 hPa | 0 mm | 3.13 m/s, 256° | 0 W/m² | - |
| 1777147665 | 8.89° C | 60% | 1010.8 hPa | 0 mm | 3.13 m/s, 243° | 0 W/m² | - |
| 1777147606 | 8.89° C | 60% | 1010.6 hPa | 0 mm | 1.79 m/s, 227° | 0 W/m² | - |
| 1777147546 | 8.89° C | 60% | 1010.9 hPa | 0 mm | 1.79 m/s, 252° | 0 W/m² | - |
| 1777147486 | 8.89° C | 60% | 1010.8 hPa | 0 mm | 0.45 m/s, 249° | 0 W/m² | - |
| 1777147426 | 8.89° C | 60% | 1010.8 hPa | 0 mm | 1.79 m/s, 217° | 0 W/m² | - |
| 1777147365 | 9.44° C | 60% | 1010.7 hPa | 0 mm | 4.02 m/s, 261° | 0 W/m² | - |
| 1777147306 | 9.44° C | 60% | 1010.7 hPa | 0 mm | 3.58 m/s, 56° | 0 W/m² | - |
| 1777147246 | 8.89° C | 59% | 1010.7 hPa | 0 mm | 2.68 m/s, 303° | 0 W/m² | - |
| 1777147186 | 8.89° C | 60% | 1010.7 hPa | 0 mm | 3.58 m/s, 243° | 0 W/m² | - |
| 1777147126 | 8.89° C | 60% | 1010.8 hPa | 0 mm | 4.47 m/s, 322° | 0 W/m² | - |
* Rain latest hour (hover to see other rain measurements)
** Current wind speed in m/s (hover to see current wind gust speed)